This is the latest recevied weather packets stored in our database for station/object AF5AA. If no packets are shown the sender has not sent any weather packets the latest 10 day(s).
| Time | Temp. | Humidity | Pressure | Rain* | Wind** | Luminosity | Snow |
|---|---|---|---|---|---|---|---|
| 1777677964 | 13.33° C | 98% | 1014.6 hPa | 0 mm | - | 15 W/m² | - |
| 1777677662 | 13.89° C | 98% | 1015.1 hPa | 0 mm | - | 10 W/m² | - |
| 1777677359 | 13.89° C | 98% | 1014.9 hPa | 0 mm | - | 12 W/m² | - |
| 1777677057 | 13.89° C | 98% | 1014.9 hPa | 0 mm | - | 20 W/m² | - |
| 1777676755 | 13.89° C | 98% | 1014.6 hPa | 0 mm | - | 31 W/m² | - |
| 1777676453 | 13.89° C | 98% | 1014.6 hPa | 0 mm | - | 35 W/m² | - |
| 1777676150 | 13.89° C | 98% | 1014.5 hPa | 0 mm | - | 37 W/m² | - |
| 1777675846 | 13.33° C | 98% | 1014.5 hPa | 0 mm | - | 31 W/m² | - |
| 1777675544 | 13.89° C | 99% | 1014.4 hPa | 0 mm | - | 31 W/m² | - |
| 1777675241 | 13.89° C | 98% | 1014 hPa | 0 mm | - | 33 W/m² | - |
| 1777674937 | 13.33° C | 98% | 1014.2 hPa | 0 mm | - | 36 W/m² | - |
| 1777674634 | 13.33° C | 98% | 1014.2 hPa | 0 mm | - | 33 W/m² | - |
| 1777674334 | 13.33° C | 98% | 1014 hPa | 0 mm | - | 30 W/m² | - |
| 1777674028 | 13.89° C | 98% | 1014.4 hPa | 0 mm | - | 27 W/m² | - |
| 1777673723 | 13.33° C | 98% | 1014.3 hPa | 0 mm | - | 29 W/m² | - |
| 1777673422 | 13.33° C | 97% | 1014.1 hPa | 0 mm | - | 35 W/m² | - |
| 1777673119 | 13.89° C | 97% | 1014.3 hPa | 0 mm | - | 37 W/m² | - |
| 1777672816 | 13.89° C | 97% | 1014.1 hPa | 0 mm | - | 29 W/m² | - |
| 1777672512 | 13.33° C | 96% | 1013.5 hPa | 0 mm | - | 28 W/m² | - |
| 1777672207 | 13.33° C | 96% | 1013.3 hPa | 0 mm | - | 35 W/m² | - |
| 1777671903 | 13.33° C | 95% | 1013.1 hPa | 0 mm | - | 34 W/m² | - |
| 1777671599 | 13.33° C | 95% | 1012.8 hPa | 0 mm | - | 42 W/m² | - |
| 1777671295 | 13.33° C | 96% | 1013.2 hPa | 0 mm | - | 45 W/m² | - |
| 1777670990 | 13.33° C | 97% | 1013 hPa | 0 mm | - | 45 W/m² | - |
| 1777670688 | 13.33° C | 98% | 1012.9 hPa | 0 mm | - | 50 W/m² | - |
* Rain latest hour (hover to see other rain measurements)
** Current wind speed in m/s (hover to see current wind gust speed)